Tracking 19706 objects as of 16-Jun-2019
HD Live streaming from Space Station
objects crossing your sky now

DMSP 5D-2 F11 DEB

Track DMSP 5D-2 F11 DEB now!
10-day predictions


NORAD ID: 29089
Int'l Code: 1991-082CJ
Perigee: 608.2 km
Apogee: 620.0 km
Inclination: 98.6 °
Period: 96.8 minutes
Semi major axis: 6985 km
RCS: 0.0065 m2 (small)
Launch date: November 28, 1991
Source: United States (US)
Launch site: AIR FORCE WESTERN TEST RANGE (AFWTR)

Note: This is SATELLITE DEBRIS
aabbcc
Your satellite tracking list
Your tracking list is empty




NASA's NSSDC Master Catalog

Two Line Element Set (TLE):
1 29089U 91082CJ  19166.23787310 +.00005468 +00000-0 +61553-3 0  9998
2 29089 098.6029 321.5580 0008468 055.2028 068.2392 14.87102241790495
Source of the keplerian elements: AFSPC